GW4192 Weather Reports


time (UTC)temp
C
wind
direction
speed
KPH
gust
KPH
rain 1hr
cm
rain 24hr
cm
rain mn
cm
humidity
%
barometer
mb
20260504193034 2 277 29.0 57.9 0.00 0.00 0.00 99 1002.8
20260504191531 2 245 35.4 51.5 0.00 0.00 0.00 99 1002.7
20260504190030 2 245 35.4 57.9 0.00 0.00 0.00 99 1002.7
20260504184532 2 260 33.8 51.5 0.00 0.00 0.00 99 1002.7
20260504183029 1 273 32.2 48.3 0.00 0.00 0.00 98 1002.8
20260504181534 1 256 29.0 53.1 0.00 0.00 0.00 98 1002.7
20260504180033 1 260 33.8 57.9 0.00 0.00 0.00 98 1002.7
20260504174530 1 245 33.8 51.5 0.00 0.00 0.00 98 1002.8
20260504173034 1 291 27.4 51.5 0.00 0.00 0.00 98 1002.9
20260504171535 1 245 33.8 49.9 0.00 0.00 0.00 98 1002.9
20260504081534 -2 245 30.6 43.5 0.00 0.03 0.00 82 1002.4
20260504044532 -3 245 30.6 51.5 0.00 0.03 0.00 87 1001.8
20260504043034 -3 325 33.8 49.9 0.00 0.03 0.00 87 1001.6
20260504041533 -3 198 33.8 46.7 0.00 0.03 0.00 87 1001.8
20260504040034 -3 275 32.2 48.3 0.00 0.03 0.00 87 1001.4
20260504034531 -3 331 33.8 48.3 0.00 0.03 0.03 88 1001.3
20260504033032 -3 245 29.0 48.3 0.00 0.03 0.03 89 1001.3
20260504031532 -3 245 32.2 48.3 0.00 0.03 0.03 89 1001.2
20260504030035 -3 292 35.4 49.9 0.00 0.03 0.03 88 1001.3
20260504024532 -3 245 35.4 53.1 0.00 0.03 0.03 88 1001.2
20260504023031 -3 314 35.4 49.9 0.00 0.03 0.03 88 1001.2
20260504021532 -3 245 35.4 49.9 0.00 0.03 0.03 89 1001.2
20260504020033 -3 245 32.2 46.7 0.00 0.03 0.03 89 1001.1
20260504014534 -3 245 33.8 54.7 0.00 0.03 0.03 88 1001.2
20260504013036 -3 245 37.0 53.1 0.00 0.03 0.03 88 1001.1
20260504011534 -3 245 35.4 54.7 0.00 0.03 0.03 88 1001.1
20260504010029 -3 245 30.6 48.3 0.00 0.03 0.03 88 1000.8
20260504004530 -3 287 37.0 54.7 0.00 0.03 0.03 87 1000.5
20260504003039 -3 245 37.0 49.9 0.00 0.03 0.03 86 1000.3
20260504001538 -3 245 33.8 51.5 0.00 0.03 0.03 86 1000.4
20260504000053 -3 245 30.6 49.9 0.00 0.03 0.03 85 1000.3
20260503234537 -2 287 32.2 48.3 0.00 0.03 0.03 83 1000.2
20260503233031 -2 245 40.2 59.5 0.00 0.03 0.03 82 1000.0
20260503231532 -2 245 37.0 54.7 0.00 0.03 0.03 82 1000.3
20260503230034 -2 245 33.8 49.9 0.00 0.03 0.03 83 1000.4
20260503224533 -2 245 29.0 53.1 0.00 0.05 0.03 82 1000.2
20260503223038 -2 245 30.6 59.5 0.00 0.05 0.03 82 1000.0
20260503221546 -2 4 30.6 51.5 0.00 0.05 0.03 83 1000.0
20260503220030 -2 245 35.4 54.7 0.00 0.05 0.03 83 999.7
20260503214539 -2 245 24.1 45.1 0.00 0.05 0.03 85 1000.0
20260503213035 -2 245 29.0 45.1 0.00 0.05 0.03 84 1000.0
20260503211533 -2 245 27.4 51.5 0.00 0.05 0.03 83 999.7
20260503210033 -1 325 32.2 51.5 0.00 0.05 0.03 84 999.6
20260503204531 -1 245 32.2 48.3 0.00 0.05 0.03 84 1000.0
20260503203041 -1 245 29.0 51.5 0.00 0.05 0.03 86 1000.1
20260503201534 -1 245 32.2 46.7 0.00 0.05 0.03 86 1000.0
20260503200036 -1 245 27.4 43.5 0.00 0.05 0.03 88 1000.3
20260503194531 -1 245 29.0 45.1 0.00 0.05 0.03 90 1000.4